Regional Weather Roundup
Issued by NWS Upton, NY

Home | Current Version | Previous Version | Text Only | Print | Product List | Glossary On
Versions: 1 2 3 4 5 6 7 8 9 10 11 12 13 14 15 16 17 18 19 20 21 22 23 24 25 26 27 28 29 30 31 32 33 34 35 36 37 38 39 40 41 42 43 44 45 46 47 48 49 50
814
ASUS41 KOKX 202105
RWROKX

Regional Weather Roundup
National Weather Service New York NY
500 PM EDT SUN MAY 20 2018

Note: "FAIR" indicates few or no clouds below 12,000 feet with no
significant weather and/or obstructions to visibility.

NYZ071-072-176-178-NJZ106-104-202200-
New York City Metro Area

CITY           SKY/WX    TMP DP  RH WIND       PRES   REMARKS
Central Park   CLOUDY    79  61  53 NW9       29.95S
Bronx Bot Gard   N/A     79  61  53 SW7       29.95R
Bronx Lehman C   N/A     79  61  53 NW8         N/A
LaGuardia Arpt PTSUNNY   78  60  53 NW16G22   29.91S
Queens College   N/A     81  63  54 W9          N/A
Kennedy Intl   PTSUNNY   82  64  54 W16       29.92F
Breezy Point     N/A     73 N/A N/A W6          N/A
Brooklyn Coll    N/A     82  63  51 W14         N/A
Staten Island    N/A     82  63  51 W12         N/A
Newark/Liberty PTSUNNY   83  64  52 W17       29.92S
Teterboro      CLOUDY    79  63  57 NW13      29.92R
$$

NYZ177-179-078>081-202200-
Long Island New York

CITY           SKY/WX    TMP DP  RH WIND       PRES   REMARKS
Jones Beach      N/A     68 N/A N/A W9G16       N/A
Wantagh          N/A     81  64  57 W7          N/A
Hempstead        N/A     81  64  57 SW5       29.95R
Matinecock Pt    N/A     73 N/A N/A NW14        N/A
Farmingdale    PTSUNNY   82  62  50 W12G23    29.91S
MacArthur/ISP  PTSUNNY   77  64  64 SW9       29.91S
Stony Brook      N/A     73  63  68 W5          N/A
Shirley        FAIR      74  65  73 S7        29.92S
Mt Sinai Harb    N/A     77 N/A N/A W6          N/A
Westhampton    FAIR      69  59  70 SW8       29.93S
East Hampton   FAIR      69  62  77 S7        29.90F
Southold         N/A     75  64  69 W7G18       N/A
Montauk          N/A     66  60  81 S8        29.91S
$$

NYZ052-065-067-202200-
Hudson Valley

CITY           SKY/WX    TMP DP  RH WIND       PRES   REMARKS
White Plains   PTSUNNY   74  64  71 NW13      29.93R
Larchmont Harb   N/A     77 N/A N/A NW14G20     N/A
Croton On Huds   N/A     75 N/A N/A N10         N/A
Somers           N/A     75  63  64 NW7G18      N/A
Brewster         N/A     73  66  78 NW6         N/A
Newburgh       PTSUNNY   73  64  73 W17       29.97R
Montgomery     FAIR      74  59  59 NW14G22   29.95R
Otisville        N/A     70  59  68 W5          N/A
Warwick          N/A     72  64  78 W10         N/A
Suffern          N/A     73  64  73 NW12G23     N/A
Poughkeepsie   PTSUNNY   78  60  53 W12       29.92R
Albany         PTSUNNY   71  57  61 W15G29    29.96R
$$

NJZ001-105-106-008-010-013-015-019>022-104-202200-
New Jersey

CITY           SKY/WX    TMP DP  RH WIND       PRES   REMARKS
Newark/Liberty PTSUNNY   83  64  52 W17       29.92S
Teterboro      CLOUDY    79  63  57 NW13      29.92R
Caldwell       CLOUDY    79  62  56 NW9       29.95R
Somerville     CLOUDY    81  65  58 VRB6      29.93S
Linden         NOT AVBL
Perth Amboy      N/A     79 N/A N/A W16G22      N/A
Sussex         CLOUDY    71  62  73 NW8G17    29.99R
Andover          N/A     75  61  61 NW7       29.98R
Trenton        PTSUNNY   81  63  54 W13       29.96R
Millville      FAIR      84  67  56 W14       29.97S
Atlantic City  CLOUDY    80  68  66 NW15G21   29.97S
Wrightstown    PTSUNNY   80  66  61 NW14      29.94S
Toms River     FAIR      83  66  56 W13       29.97S
Belmar         FAIR      81  68  64 W9        29.96S
$$

PAZ047>061-062-071-202200-
Eastern Pennsylvania

CITY           SKY/WX    TMP DP  RH WIND       PRES   REMARKS
Philadelphia   PTSUNNY   83  63  50 W16G24    29.97S
Allentown      CLOUDY    77  60  55 W10       29.98S
Scranton       CLOUDY    67  59  75 N8        30.04R
$$

CTZ002-004>006-009-010-012-RIZ004-006-007-MAZ004-011-015-202200-
Southern New England

 In CT

CITY           SKY/WX    TMP DP  RH WIND       PRES   REMARKS
Bradley Intl   LGT RAIN  72  63  73 NW10      29.91R
Hartford       CLOUDY    72  62  71 NW17G30   29.91R
Danbury        PTSUNNY   75  63  66 W9        29.94R
Wtrbury/Oxford FAIR      76  65  68 NW9       29.93S
Norwalk Harbor   N/A     73 N/A N/A W13         N/A
Bridgeport     PTSUNNY   80  64  58 W14G20    29.90S
Meriden        FAIR      80  63  55 W10G20    29.89R
New Haven      PTSUNNY   76  63  64 VRB5      29.89S
Chester        FAIR      82  64  54 VRB6G13   29.90R
Groton         FAIR      69  63  81 SW13      29.88F
Willimantic    LGT RAIN  72  67  84 N16       29.89R

 In RI

CITY           SKY/WX    TMP DP  RH WIND       PRES   REMARKS
Providence     PTSUNNY   74  69  85 SW10      29.87S
Block Island   CLOUDY    59  56  89 SW20G28   29.90F FOG
Westerly       FAIR      69  63  81 SW9       29.89F

In MA

CITY           SKY/WX    TMP DP  RH WIND       PRES   REMARKS
Boston         NOT AVBL
Worcester      CLOUDY    69  66  90 W9        29.90S
Westfield      CLOUDY    73  64  73 NW13      29.90S
Provincetown   CLOUDY    59  57  93 SW10      29.87R
Nantucket      FOG       57  57 100 SW17G25   29.90F VSB 3/4
$$

ANZ330-335-338-340-345-350-353-355-202200-
Coastal Marine Observations


STATION/POSITION TIME  SKY/WX   TEMP    WIND        PRES    VSBY  WAVE
                                AIR SEA DIR/SP/G                  HT/PER
                 (UTC)          (F)     (DEG/KT/KT) (MB)    (MI)  (FT/S)
NY Harb Entrance 2050            60 54  180/  8/ 10 1013.7          4/ 6
20 S Fire Island 2050            57 52  230/ 14/ 16 1014.0          5/ 7
23 SSW Montauk P 2050            55 51  250/ 10/ 12 1013.6          6/ 7
15 E Barnegat Li 2030               57                N/A           5/ 8
Hudson Canyon    2050            57 51  220/ 16/ 19 1014.6          6/ 8
Kings Point      2024            74 56  300/ 10/ 12 1014.0
Execution Rocks  NOT AVBL
Western LI Sound NOT AVBL
Central LI Sound 2045            63     250/ 14/ 14   N/A           1
Robbins Reef     2024            79     280/ 17/ 21 1013.7
$$


>>>>>>>>>>>>>>>>>>>>>>>>>>>> KEY <<<<<<<<<<<<<<<<<<<<<<<<<<<
>                                                          <
>     SKY/WX - Sky Condition/Present Weather               <
>     TMP    - Temperature in Fahrenheit                   <
>     DP     - Dew Point in Fahrenheit                     <
>     RH     - Relative Humidity in Percent                <
>     WIND   - Direction (from) and Speed in MPH           <
>     PRES   - Mean Sea Level Pressure (inches of Hg)      <
>     WCI    - Wind Chill Index                            <
>     VSB    - Visibility in Miles                         <
>     HX     - Heat Index                                  <
>     TC     - Temperature in Celsius                      <
>     VRB    - Varibale Wind Direction                     <
>                                                          <
>>>>>>>>>>>>>>>>>>>>>>>>>>>> KEY <<<<<<<<<<<<<<<<<<<<<<<<<<<




USA.gov is the U.S. government's official web portal to all federal, state and local government web resources and services.